This demonstration page uses our WeatherBlox Daily Observations layout. Learn more.

Left ArrowRight Arrow

41.55636, -103.73856

Hourly Observations for March 13, 2021

Temp ( °F °C ) Dew Point ( °F °C ) Humidity (%) Winds ( mph kmh ) Pressure ( in mb ) Visibility ( mi km ) Precip ( " mm )
12:58 am 00:58 Mostly Cloudy with Mist and Fog 33 0.7 31 -0.4 92 92 SE 12 19 30.25 1024 1 2 0.00 0.00
1:58 am 01:58 Mostly Cloudy with Fog 33 0.5 31 -0.4 94 94 S 12 19 30.21 1023 0 0 0.00 0.00
2:58 am 02:58 Mostly Cloudy with Light Rain 33 0.4 31 -0.4 94 94 SE 13 20 30.22 1023 1 2 0.00 0.00
3:58 am 03:58 Mostly Cloudy with Light Rain 32 0.2 31 -0.6 94 94 SSE 15 24 30.19 1023 1 2 0.00 0.00
4:58 am 04:58 Mostly Cloudy with Light Showers 32 0 31 -0.8 94 94 SSE 14 22 30.21 1023 1 2 0.00 0.00
5:58 am 05:58 Mostly Cloudy with Light Showers 32 -0.1 30 -0.9 94 94 SE 13 20 30.20 1023 1 2 0.00 0.00
6:58 am 06:58 Cloudy with Fog 32 0 31 -0.7 95 95 SE 8 13 30.21 1023 1 1 0.00 0.00
7:58 am 07:58 Mostly Cloudy with Fog 32 0 31 -0.8 94 94 ESE 12 19 30.23 1024 1 2 0.00 0.00
8:58 am 08:58 Mostly Cloudy with Light Showers 31 -0.4 30 -1.1 95 95 E 8 13 30.23 1024 1 2 0.00 0.00
9:58 am 09:58 Mostly Cloudy with Freezing Fog 31 -0.4 30 -1.1 95 95 E 10 17 30.22 1023 N/A 0.01 0.25
10:58 am 10:58 Mostly Cloudy with Light Snow 31 -0.5 30 -1.2 95 95 E 13 20 30.20 1023 1 2 0.01 0.25
11:58 am 11:58 Cloudy with Light Snow 31 -0.4 30 -1.1 95 95 E 8 13 30.23 1024 3 5 0.02 0.51
12:58 pm 12:58 Cloudy with Light Snow Showers 31 -0.3 30 -1 95 95 ENE 10 17 30.18 1022 2 4 0.02 0.51
1:58 pm 13:58 Cloudy with Light Snow Showers 31 -0.8 29 -1.5 95 95 ENE 14 22 30.16 1021 1 2 0.02 0.51
2:58 pm 14:58 Mostly Cloudy with Heavy Snow 30 -0.9 29 -1.6 95 95 NE 8 13 30.16 1021 1 2 0.02 0.51
3:58 pm 15:58 Cloudy with Snow 30 -1.1 29 -1.9 94 94 NE 14 22 30.13 1020 3 5 0.06 1.52
4:58 pm 16:58 Cloudy with Snow 30 -1.1 29 -1.8 95 95 ENE 15 24 30.11 1020 1 1 0.07 1.78
5:58 pm 17:58 Cloudy with Light Snow 30 -1 29 -1.8 94 94 ENE 15 24 30.11 1020 5 8 0.04 1.02
6:58 pm 18:58 Mostly Cloudy with Light Snow 32 -0.2 30 -1 94 94 E 20 31 30.08 1019 0 0 0.02 0.51
7:58 pm 19:58 Mostly Cloudy with Fog 32 0.2 31 -0.6 94 94 E 24 39 30.07 1018 0 0 0.05 1.27
8:58 pm 20:58 Mostly Cloudy with Light Rain/Snow 33 0.4 31 -0.4 94 94 ENE 31 50 29.96 1015 N/A 0.13 3.30
9:58 pm 21:58 Windy with Rain Showers Likely 34 1 33 0.3 95 95 E 29 46 30.03 1017 3 5 0.02 0.51
10:58 pm 22:58 Mostly Cloudy with Light Rain 34 0.9 32 0.1 94 94 E 28 44 30.04 1017 0 0 0.00 0.00
11:58 pm 23:58 Windy with Snow Likely 33 0.3 31 -0.5 94 94 ENE 21 33 29.99 1016 3 5 0.03 0.76

Powered by AerisWeather